Location: ????????
(56.1167°N, 38.6333°E)
Time: 12:23:33
(UTC+00:00)

Cosmos 1867 - Pass Details

Date: 18 November 2025
Orbit: 777 x 796 km, 65.0° (Epoch: 10 December)

Event Time Altitude Azimuth Distance (km) Brightness Sun altitude
Rises 13:52:14 0° 234° (SW) 3,285 9.1 -5.7°
Reaches altitude 10° 13:54:40 10° 236° (SW) 2,361 7.8 -6.0°
Maximum altitude 14:00:06 75° 321° (NW) 831 3.8 -6.7°
Drops below altitude 10° 14:05:35 10° 48° (NE) 2,378 5.4 -7.3°
Enters shadow 14:06:06 - 49° (NE) 2,573 5.6 -7.4°
